Time,TemperatureF,DewpointF,PressureIn,WindDirection,WindDirectionDegrees,WindSpeedMPH,WindSpeedGustMPH,Humidity,HourlyPrecipIn,Conditions,Clouds,dailyrainin,SoftwareType,DateUTC
2013-06-11 00:09:00,82.0,76.6,0.00,SE,135,2.2,3.6,80,0.00,,,-99.99,Homeseer,2013-06-11 04:09:00,
2013-06-11 00:19:00,82.0,76.6,0.00,SSE,157,2.9,5.8,80,0.00,,,-99.99,Homeseer,2013-06-11 04:19:00,
2013-06-11 00:29:00,82.0,76.6,0.00,North,0,3.6,3.6,80,0.00,,,-99.99,Homeseer,2013-06-11 04:29:00,
2013-06-11 00:39:00,82.0,76.6,0.00,ESE,112,4.5,4.7,80,0.00,,,-99.99,Homeseer,2013-06-11 04:39:00,
2013-06-11 00:49:00,82.0,76.6,0.00,ESE,112,4.3,4.9,80,0.00,,,-99.99,Homeseer,2013-06-11 04:49:00,
2013-06-11 00:59:00,0.0,0.0,0.00,ESE,112,5.4,5.4,0,0.00,,,-99.99,Homeseer,2013-06-11 04:59:00,
2013-06-11 01:09:00,0.0,0.0,0.00,ENE,67,5.8,5.8,0,0.00,,,-99.99,Homeseer,2013-06-11 05:09:00,
2013-06-11 01:19:00,0.0,0.0,0.00,SW,225,4.9,9.8,0,0.00,,,-99.99,Homeseer,2013-06-11 05:19:00,
2013-06-11 01:29:00,0.0,0.0,0.00,SSE,157,4.7,4.7,0,0.00,,,-99.99,Homeseer,2013-06-11 05:29:00,
2013-06-11 01:39:00,0.0,0.0,0.00,ESE,112,6.0,7.4,0,0.00,,,-99.99,Homeseer,2013-06-11 05:39:00,
2013-06-11 01:49:00,0.0,0.0,0.00,SSE,157,4.3,4.3,0,0.00,,,-99.99,Homeseer,2013-06-11 05:49:00,
2013-06-11 01:59:00,0.0,0.0,0.00,ESE,112,4.9,7.4,0,0.00,,,-99.99,Homeseer,2013-06-11 05:59:00,
2013-06-11 02:09:00,0.0,0.0,0.00,SSE,157,5.6,8.1,0,0.00,,,-99.99,Homeseer,2013-06-11 06:09:00,
2013-06-11 02:19:00,0.0,0.0,0.00,SE,135,4.0,4.0,0,0.00,,,-99.99,Homeseer,2013-06-11 06:19:00,
2013-06-11 02:29:00,0.0,0.0,0.00,SSE,157,5.6,6.9,0,0.00,,,-99.99,Homeseer,2013-06-11 06:29:00,
2013-06-11 02:39:00,0.0,0.0,0.00,North,0,4.3,4.3,0,0.00,,,-99.99,Homeseer,2013-06-11 06:39:00,
2013-06-11 02:49:00,0.0,0.0,0.00,ESE,112,2.2,3.8,0,0.00,,,-99.99,Homeseer,2013-06-11 06:49:00,
2013-06-11 02:59:00,0.0,0.0,0.00,SSE,157,3.6,3.6,0,0.00,,,-99.99,Homeseer,2013-06-11 06:59:00,
2013-06-11 03:09:00,0.0,0.0,0.00,ESE,112,2.2,2.2,0,0.00,,,-99.99,Homeseer,2013-06-11 07:09:00,
2013-06-11 03:19:00,0.0,0.0,0.00,South,180,2.7,2.7,0,0.00,,,-99.99,Homeseer,2013-06-11 07:19:00,
2013-06-11 03:29:00,0.0,0.0,0.00,SSE,157,2.7,2.7,0,0.00,,,-99.99,Homeseer,2013-06-11 07:29:00,
2013-06-11 03:39:00,0.0,0.0,0.00,SSE,157,3.6,7.2,0,0.00,,,-99.99,Homeseer,2013-06-11 07:39:00,
2013-06-11 03:49:00,0.0,0.0,0.00,SE,135,4.3,4.7,0,0.00,,,-99.99,Homeseer,2013-06-11 07:49:00,
2013-06-11 03:59:00,0.0,0.0,0.00,North,0,2.2,3.1,0,0.00,,,-99.99,Homeseer,2013-06-11 07:59:00,
2013-06-11 04:09:00,0.0,0.0,0.00,SE,135,4.0,5.4,0,0.00,,,-99.99,Homeseer,2013-06-11 08:09:00,
2013-06-11 04:19:00,0.0,0.0,0.00,SSE,157,3.8,8.7,0,0.00,,,-99.99,Homeseer,2013-06-11 08:19:00,
2013-06-11 04:29:00,0.0,0.0,0.00,SE,135,3.6,3.6,0,0.00,,,-99.99,Homeseer,2013-06-11 08:29:00,
2013-06-11 04:39:00,0.0,0.0,0.00,North,0,4.0,4.0,0,0.00,,,-99.99,Homeseer,2013-06-11 08:39:00,
2013-06-11 04:49:00,0.0,0.0,0.00,North,0,3.1,3.6,0,0.00,,,-99.99,Homeseer,2013-06-11 08:49:00,
2013-06-11 04:59:00,0.0,0.0,0.00,South,180,3.1,3.6,0,0.00,,,-99.99,Homeseer,2013-06-11 08:59:00,
2013-06-11 05:09:00,0.0,0.0,0.00,North,0,2.0,2.0,0,0.00,,,-99.99,Homeseer,2013-06-11 09:09:00,
2013-06-11 05:19:00,0.0,0.0,0.00,North,0,1.6,0.0,0,0.00,,,-99.99,Homeseer,2013-06-11 09:19:00,
2013-06-11 05:29:00,0.0,0.0,0.00,SSE,157,3.4,3.4,0,0.00,,,-99.99,Homeseer,2013-06-11 09:29:00,
2013-06-11 05:39:00,0.0,0.0,0.00,SW,225,0.0,0.0,0,0.00,,,-99.99,Homeseer,2013-06-11 09:39:00,
2013-06-11 05:49:00,0.0,0.0,0.00,North,0,1.1,3.1,0,0.00,,,-99.99,Homeseer,2013-06-11 09:49:00,
2013-06-11 05:59:00,0.0,0.0,0.00,SSE,157,1.1,2.0,0,0.00,,,-99.99,Homeseer,2013-06-11 09:59:00,
2013-06-11 06:09:00,0.0,0.0,0.00,North,0,1.6,0.0,0,0.00,,,-99.99,Homeseer,2013-06-11 10:09:00,
2013-06-11 06:19:00,0.0,0.0,0.00,North,0,0.0,2.7,0,0.00,,,-99.99,Homeseer,2013-06-11 10:19:00,
2013-06-11 06:29:00,0.0,0.0,0.00,North,0,1.1,3.4,0,0.00,,,-99.99,Homeseer,2013-06-11 10:29:00,
2013-06-11 06:39:00,0.0,0.0,0.00,North,0,1.1,0.0,0,0.00,,,-99.99,Homeseer,2013-06-11 10:39:00,
2013-06-11 06:49:00,0.0,0.0,0.00,North,0,2.9,2.9,0,0.00,,,-99.99,Homeseer,2013-06-11 10:49:00,
2013-06-11 07:06:00,0.0,0.0,0.00,South,180,1.3,0.0,0,0.00,,,-99.99,Homeseer,2013-06-11 11:06:00,
2013-06-11 07:16:00,0.0,0.0,0.00,WSW,247,2.2,2.2,0,0.00,,,-99.99,Homeseer,2013-06-11 11:16:00,
2013-06-11 07:26:00,0.0,0.0,0.00,North,0,0.0,0.9,0,0.00,,,-99.99,Homeseer,2013-06-11 11:26:00,
2013-06-11 07:36:00,0.0,0.0,0.00,WSW,247,0.9,0.0,0,0.00,,,-99.99,Homeseer,2013-06-11 11:36:00,
2013-06-11 07:46:00,82.2,78.5,0.00,WSW,247,0.9,0.0,86,0.00,,,-99.99,Homeseer,2013-06-11 11:46:00,
2013-06-11 07:56:00,83.3,79.3,0.00,WSW,247,0.9,0.0,85,0.00,,,-99.99,Homeseer,2013-06-11 11:56:00,
2013-06-11 08:16:00,82.8,78.5,0.00,WSW,247,0.9,0.0,84,0.00,,,-99.99,Homeseer,2013-06-11 12:16:00,
2013-06-11 08:26:00,84.0,78.8,0.00,SSE,157,2.7,3.4,81,0.00,,,-99.99,Homeseer,2013-06-11 12:26:00,
2013-06-11 08:46:00,85.3,76.6,0.00,West,270,3.8,0.0,70,0.00,,,-99.99,Homeseer,2013-06-11 12:46:00,
2013-06-11 08:56:00,85.8,76.7,0.00,South,180,1.3,1.3,69,0.00,,,-99.99,Homeseer,2013-06-11 12:56:00,
2013-06-11 09:06:00,86.7,76.8,0.00,SSE,157,3.1,3.4,67,0.00,,,-99.99,Homeseer,2013-06-11 13:06:00,
2013-06-11 09:16:00,86.4,75.5,0.00,North,0,1.1,2.7,64,0.00,,,-99.99,Homeseer,2013-06-11 13:16:00,
2013-06-11 09:26:00,86.0,75.8,0.00,South,180,2.5,3.4,66,0.00,,,-99.99,Homeseer,2013-06-11 13:26:00,
2013-06-11 09:36:00,85.6,76.2,0.00,North,0,1.6,2.9,68,0.00,,,-99.99,Homeseer,2013-06-11 13:36:00,
2013-06-11 09:46:00,84.9,76.2,0.00,SSE,157,2.5,2.7,70,0.00,,,-99.99,Homeseer,2013-06-11 13:46:00,
2013-06-11 09:56:00,83.7,75.7,0.00,WSW,247,3.1,0.0,72,0.00,,,-99.99,Homeseer,2013-06-11 13:56:00,
2013-06-11 10:06:00,82.8,75.5,0.00,South,180,5.8,5.8,74,0.00,,,-99.99,Homeseer,2013-06-11 14:06:00,
2013-06-11 10:26:00,82.0,76.3,0.00,North,0,2.7,6.0,79,0.00,,,-99.99,Homeseer,2013-06-11 14:26:00,
2013-06-11 10:36:00,81.9,75.6,0.00,North,0,5.4,5.6,77,0.00,,,-99.99,Homeseer,2013-06-11 14:36:00,
2013-06-11 10:46:00,81.1,73.9,0.00,SW,225,5.4,5.4,74,0.00,,,-99.99,Homeseer,2013-06-11 14:46:00,
2013-06-11 10:56:00,81.1,73.9,0.00,North,0,2.7,3.1,74,0.00,,,-99.99,Homeseer,2013-06-11 14:56:00,
2013-06-11 11:26:00,81.1,74.2,0.00,North,0,0.0,0.0,75,0.00,,,-99.99,Homeseer,2013-06-11 15:26:00,
2013-06-11 11:36:00,81.3,74.7,0.00,WNW,297,0.0,0.0,76,0.00,,,-99.99,Homeseer,2013-06-11 15:36:00,
2013-06-11 11:46:00,81.7,75.4,0.00,SW,225,0.0,1.3,77,0.00,,,-99.99,Homeseer,2013-06-11 15:46:00,
2013-06-11 11:56:00,81.3,75.0,0.00,South,180,1.6,2.2,77,0.00,,,-99.99,Homeseer,2013-06-11 15:56:00,
2013-06-11 12:06:00,82.8,76.1,0.00,WSW,247,0.9,1.3,76,0.00,,,-99.99,Homeseer,2013-06-11 16:06:00,
2013-06-11 12:26:00,85.8,76.0,0.00,SSE,157,2.0,2.7,67,0.00,,,-99.99,Homeseer,2013-06-11 16:26:00,
2013-06-11 12:36:00,86.9,75.6,0.00,South,180,2.2,2.2,63,0.00,,,-99.99,Homeseer,2013-06-11 16:36:00,
2013-06-11 12:46:00,88.2,75.2,0.00,North,0,2.7,3.8,59,0.00,,,-99.99,Homeseer,2013-06-11 16:46:00,
2013-06-11 12:56:00,88.3,74.5,0.00,North,0,5.4,5.4,57,0.00,,,-99.99,Homeseer,2013-06-11 16:56:00,
2013-06-11 13:16:00,89.1,71.7,0.00,SW,225,4.7,4.7,49,0.00,,,-99.99,Homeseer,2013-06-11 17:16:00,
2013-06-11 13:26:00,88.7,70.4,0.00,SE,135,3.1,4.7,47,0.00,,,-99.99,Homeseer,2013-06-11 17:26:00,
2013-06-11 13:36:00,88.7,70.4,0.00,SE,135,3.1,4.7,47,0.00,,,-99.99,Homeseer,2013-06-11 17:36:00,
2013-06-11 13:56:00,90.7,67.9,0.00,North,0,5.4,5.4,39,0.00,,,-99.99,Homeseer,2013-06-11 17:56:00,
2013-06-11 14:16:00,90.0,66.7,0.00,North,0,4.3,6.3,38,0.00,,,-99.99,Homeseer,2013-06-11 18:16:00,
2013-06-11 14:36:00,89.8,66.5,0.00,SSE,157,4.0,4.0,38,0.00,,,-99.99,Homeseer,2013-06-11 18:36:00,
2013-06-11 14:46:00,89.6,66.9,0.00,South,180,3.6,3.8,39,0.00,,,-99.99,Homeseer,2013-06-11 18:46:00,
2013-06-11 14:56:00,90.7,68.5,0.00,North,0,3.4,5.6,40,0.00,,,-99.99,Homeseer,2013-06-11 18:56:00,
2013-06-11 15:06:00,90.0,66.7,0.00,WSW,247,4.5,4.5,38,0.00,,,-99.99,Homeseer,2013-06-11 19:06:00,
2013-06-11 15:16:00,90.1,67.9,0.00,SSE,157,2.0,0.0,40,0.00,,,-99.99,Homeseer,2013-06-11 19:16:00,
2013-06-11 15:26:00,89.2,67.1,0.00,South,180,2.5,2.5,40,0.00,,,-99.99,Homeseer,2013-06-11 19:26:00,
2013-06-11 15:46:00,88.3,65.8,0.00,North,0,0.9,3.6,39,0.00,,,-99.99,Homeseer,2013-06-11 19:46:00,
2013-06-11 16:16:00,86.9,67.8,0.00,SSE,157,2.5,3.1,45,0.00,,,-99.99,Homeseer,2013-06-11 20:16:00,
2013-06-11 16:36:00,87.1,68.0,0.00,SE,135,3.6,3.6,45,0.00,,,-99.99,Homeseer,2013-06-11 20:36:00,
2013-06-11 16:46:00,86.7,68.6,0.00,SSE,157,4.3,4.3,47,0.00,,,-99.99,Homeseer,2013-06-11 20:46:00,
2013-06-11 16:56:00,86.9,68.8,0.00,ESE,112,2.5,4.9,47,0.00,,,-99.99,Homeseer,2013-06-11 20:56:00,
2013-06-11 17:36:00,85.8,70.9,0.00,SE,135,4.0,4.0,54,0.00,,,-99.99,Homeseer,2013-06-11 21:36:00,
2013-06-11 17:46:00,86.0,71.1,0.00,SSE,157,2.0,2.0,54,0.00,,,-99.99,Homeseer,2013-06-11 21:46:00,
2013-06-11 18:06:00,85.5,71.9,0.00,ESE,112,3.4,3.4,57,0.00,,,-99.99,Homeseer,2013-06-11 22:06:00,
2013-06-11 18:16:00,85.5,72.7,0.00,SSE,157,2.0,2.7,59,0.00,,,-99.99,Homeseer,2013-06-11 22:16:00,
2013-06-11 18:36:00,84.6,72.7,0.00,ESE,112,2.5,3.4,61,0.00,,,-99.99,Homeseer,2013-06-11 22:36:00,
2013-06-11 18:46:00,84.2,73.4,0.00,North,0,0.9,1.1,64,0.00,,,-99.99,Homeseer,2013-06-11 22:46:00,
2013-06-11 18:56:00,84.2,73.8,0.00,SE,135,3.6,3.6,65,0.00,,,-99.99,Homeseer,2013-06-11 22:56:00,
2013-06-11 19:06:00,83.8,74.1,0.00,SSE,157,2.7,2.7,67,0.00,,,-99.99,Homeseer,2013-06-11 23:06:00,
2013-06-11 19:16:00,83.7,72.9,0.00,SW,225,1.3,2.7,64,0.00,,,-99.99,Homeseer,2013-06-11 23:16:00,
2013-06-11 19:26:00,83.8,73.0,0.00,SSE,157,2.7,2.7,64,0.00,,,-99.99,Homeseer,2013-06-11 23:26:00,
2013-06-11 19:36:00,83.7,73.3,0.00,SSE,157,2.0,3.4,65,0.00,,,-99.99,Homeseer,2013-06-11 23:36:00,
2013-06-11 19:46:00,83.5,73.5,0.00,East,90,3.6,3.6,66,0.00,,,-99.99,Homeseer,2013-06-11 23:46:00,
2013-06-11 19:56:00,83.1,74.5,0.00,ESE,112,2.9,2.9,70,0.00,,,-99.99,Homeseer,2013-06-11 23:56:00,
2013-06-11 20:06:00,82.9,76.8,0.00,East,90,2.9,4.0,78,0.00,,,-99.99,Homeseer,2013-06-12 00:06:00,
2013-06-11 20:16:00,82.8,77.1,0.00,SSE,157,3.1,3.1,79,0.00,,,-99.99,Homeseer,2013-06-12 00:16:00,
2013-06-11 20:26:00,82.8,77.4,0.00,SE,135,2.0,3.8,80,0.00,,,-99.99,Homeseer,2013-06-12 00:26:00,
2013-06-11 20:36:00,82.6,76.9,0.00,SSE,157,0.9,0.0,79,0.00,,,-99.99,Homeseer,2013-06-12 00:36:00,
2013-06-11 20:46:00,82.6,76.9,0.00,SSE,157,3.1,3.1,79,0.00,,,-99.99,Homeseer,2013-06-12 00:46:00,
2013-06-11 20:56:00,82.4,77.0,0.00,North,0,3.1,3.1,80,0.00,,,-99.99,Homeseer,2013-06-12 00:56:00,
2013-06-11 21:06:00,82.4,77.3,0.00,SSE,157,3.8,6.3,81,0.00,,,-99.99,Homeseer,2013-06-12 01:06:00,
2013-06-11 21:16:00,82.4,77.0,0.00,South,180,3.6,4.3,80,0.00,,,-99.99,Homeseer,2013-06-12 01:16:00,
2013-06-11 21:26:00,82.4,76.7,0.00,North,0,3.8,4.3,79,0.00,,,-99.99,Homeseer,2013-06-12 01:26:00,
2013-06-11 21:36:00,81.9,75.9,0.00,ESE,112,1.6,1.6,78,0.00,,,-99.99,Homeseer,2013-06-12 01:36:00,
2013-06-11 21:46:00,81.7,76.0,0.00,SSE,157,4.5,4.5,79,0.00,,,-99.99,Homeseer,2013-06-12 01:46:00,
2013-06-11 21:56:00,81.3,77.4,0.00,SSE,157,4.0,4.0,85,0.00,,,-99.99,Homeseer,2013-06-12 01:56:00,
2013-06-11 22:06:00,81.3,77.6,0.00,SE,135,4.0,4.0,86,0.00,,,-99.99,Homeseer,2013-06-12 02:06:00,
2013-06-11 22:16:00,81.3,77.6,0.00,SE,135,2.5,2.9,86,0.00,,,-99.99,Homeseer,2013-06-12 02:16:00,
2013-06-11 22:26:00,81.3,77.6,0.00,SSE,157,1.1,1.1,86,0.00,,,-99.99,Homeseer,2013-06-12 02:26:00,
2013-06-11 22:36:00,81.3,77.6,0.00,SSE,157,4.9,4.9,86,0.00,,,-99.99,Homeseer,2013-06-12 02:36:00,
2013-06-11 22:46:00,81.3,77.6,0.00,South,180,1.6,2.5,86,0.00,,,-99.99,Homeseer,2013-06-12 02:46:00,
2013-06-11 22:56:00,81.3,77.6,0.00,North,0,1.3,0.0,86,0.00,,,-99.99,Homeseer,2013-06-12 02:56:00,
2013-06-11 23:06:00,0.0,0.0,0.00,SSE,157,3.1,3.1,0,0.00,,,-99.99,Homeseer,2013-06-12 03:06:00,
2013-06-11 23:16:00,0.0,0.0,0.00,North,0,3.4,7.2,0,0.00,,,-99.99,Homeseer,2013-06-12 03:16:00,
2013-06-11 23:26:00,0.0,0.0,0.00,North,0,2.2,2.9,0,0.00,,,-99.99,Homeseer,2013-06-12 03:26:00,
2013-06-11 23:36:00,82.0,76.3,0.00,North,0,2.2,0.0,79,0.00,,,-99.99,Homeseer,2013-06-12 03:36:00,
2013-06-11 23:46:00,81.9,76.5,0.00,North,0,1.6,2.5,80,0.00,,,-99.99,Homeseer,2013-06-12 03:46:00,
2013-06-11 23:56:00,81.7,77.2,0.00,SSE,157,2.0,2.0,83,0.00,,,-99.99,Homeseer,2013-06-12 03:56:00,